Year,Month,Day,Hour,Minute,Value (Times are PST for temperature in C)
2008,05,31,00,00,10.10
2008,05,31,00,01,10.00
2008,05,31,00,02,10.00
2008,05,31,00,03,9.90
2008,05,31,00,04,9.90
2008,05,31,00,05,9.90
2008,05,31,00,06,9.90
2008,05,31,00,07,9.80
2008,05,31,00,08,9.80
2008,05,31,00,09,9.80
2008,05,31,00,10,9.80
2008,05,31,00,11,9.80
2008,05,31,00,12,9.80
2008,05,31,00,13,9.80
2008,05,31,00,14,9.70
2008,05,31,00,15,9.70
2008,05,31,00,16,9.70
2008,05,31,00,17,9.70
2008,05,31,00,18,9.70
2008,05,31,00,19,9.70
2008,05,31,00,20,9.70
2008,05,31,00,21,9.60
2008,05,31,00,22,9.60
2008,05,31,00,23,9.60
2008,05,31,00,24,9.60
2008,05,31,00,25,9.60
2008,05,31,00,26,9.50
2008,05,31,00,27,9.50
2008,05,31,00,28,9.50
2008,05,31,00,29,9.40
2008,05,31,00,30,9.40
2008,05,31,00,31,9.40
2008,05,31,00,32,9.40
2008,05,31,00,33,9.40
2008,05,31,00,34,9.30
2008,05,31,00,35,9.30
2008,05,31,00,36,9.30
2008,05,31,00,37,9.30
2008,05,31,00,38,9.30
2008,05,31,00,39,9.30
2008,05,31,00,40,9.30
2008,05,31,00,41,9.30
2008,05,31,00,42,9.20
2008,05,31,00,43,9.20
2008,05,31,00,44,9.20
2008,05,31,00,45,9.20
2008,05,31,00,46,9.20
2008,05,31,00,47,9.20
2008,05,31,00,48,9.20
2008,05,31,00,49,9.20
2008,05,31,00,50,9.20
2008,05,31,00,51,9.10
2008,05,31,00,52,9.10
2008,05,31,00,53,9.10
2008,05,31,00,54,9.10
2008,05,31,00,55,9.10
2008,05,31,00,56,9.10
2008,05,31,00,57,9.10
2008,05,31,00,58,9.00
2008,05,31,00,59,9.00
2008,05,31,01,00,9.00
2008,05,31,01,01,9.00
2008,05,31,01,02,8.90
2008,05,31,01,03,8.90
2008,05,31,01,04,8.90
2008,05,31,01,05,8.90
2008,05,31,01,06,8.90
2008,05,31,01,07,8.90
2008,05,31,01,08,8.80
2008,05,31,01,09,8.80
2008,05,31,01,10,8.80
2008,05,31,01,11,8.80
2008,05,31,01,12,8.80
2008,05,31,01,13,8.80
2008,05,31,01,14,8.80
2008,05,31,01,15,8.80
2008,05,31,01,16,8.80
2008,05,31,01,17,8.70
2008,05,31,01,18,8.70
2008,05,31,01,19,8.70
2008,05,31,01,20,8.70
2008,05,31,01,21,8.70
2008,05,31,01,22,8.70
2008,05,31,01,23,8.70
2008,05,31,01,24,8.70
2008,05,31,01,25,8.70
2008,05,31,01,26,8.70
2008,05,31,01,27,8.70
2008,05,31,01,28,8.70
2008,05,31,01,29,8.70
2008,05,31,01,30,8.60
2008,05,31,01,31,8.60
2008,05,31,01,32,8.70
2008,05,31,01,33,8.70
2008,05,31,01,34,8.70
2008,05,31,01,35,8.70
2008,05,31,01,36,8.70
2008,05,31,01,37,8.70
2008,05,31,01,38,8.70
2008,05,31,01,39,8.70
2008,05,31,01,40,8.80
2008,05,31,01,41,8.80
2008,05,31,01,42,8.80
2008,05,31,01,43,8.80
2008,05,31,01,44,8.80
2008,05,31,01,45,8.80
2008,05,31,01,46,8.80
2008,05,31,01,47,8.80
2008,05,31,01,48,8.80
2008,05,31,01,49,8.80
2008,05,31,01,50,8.80
2008,05,31,01,51,8.80
2008,05,31,01,52,8.70
2008,05,31,01,53,8.70
2008,05,31,01,54,8.70
2008,05,31,01,55,8.70
2008,05,31,01,56,8.70
2008,05,31,01,57,8.70
2008,05,31,01,58,8.70
2008,05,31,01,59,8.80
2008,05,31,02,00,8.80
2008,05,31,02,01,8.80
2008,05,31,02,02,8.80
2008,05,31,02,03,8.80
2008,05,31,02,04,8.80
2008,05,31,02,05,8.80
2008,05,31,02,06,8.80
2008,05,31,02,07,8.80
2008,05,31,02,08,8.80
2008,05,31,02,09,8.80
2008,05,31,02,10,8.70
2008,05,31,02,11,8.70
2008,05,31,02,12,8.70
2008,05,31,02,13,8.70
2008,05,31,02,14,8.80
2008,05,31,02,15,8.80
2008,05,31,02,16,8.80
2008,05,31,02,17,8.80
2008,05,31,02,18,8.80
2008,05,31,02,19,8.80
2008,05,31,02,20,8.70
2008,05,31,02,21,8.70
2008,05,31,02,22,8.70
2008,05,31,02,23,8.70
2008,05,31,02,24,8.70
2008,05,31,02,25,8.70
2008,05,31,02,26,8.70
2008,05,31,02,27,8.60
2008,05,31,02,28,8.60
2008,05,31,02,29,8.60
2008,05,31,02,30,8.60
2008,05,31,02,31,8.60
2008,05,31,02,32,8.60
2008,05,31,02,33,8.60
2008,05,31,02,34,8.50
2008,05,31,02,35,8.50
2008,05,31,02,36,8.50
2008,05,31,02,37,8.50
2008,05,31,02,38,8.50
2008,05,31,02,39,8.50
2008,05,31,02,40,8.40
2008,05,31,02,41,8.40
2008,05,31,02,42,8.40
2008,05,31,02,43,8.40
2008,05,31,02,44,8.40
2008,05,31,02,45,8.40
2008,05,31,02,46,8.30
2008,05,31,02,47,8.30
2008,05,31,02,48,8.30
2008,05,31,02,49,8.30
2008,05,31,02,50,8.30
2008,05,31,02,51,8.30
2008,05,31,02,52,8.30
2008,05,31,02,53,8.30
2008,05,31,02,54,8.20
2008,05,31,02,55,8.20
2008,05,31,02,56,8.20
2008,05,31,02,57,8.20
2008,05,31,02,58,8.20
2008,05,31,02,59,8.20
2008,05,31,03,00,8.10
2008,05,31,03,01,8.10
2008,05,31,03,02,8.10
2008,05,31,03,03,8.20
2008,05,31,03,04,8.10
2008,05,31,03,05,8.10
2008,05,31,03,06,8.10
2008,05,31,03,07,8.20
2008,05,31,03,08,8.20
2008,05,31,03,09,8.20
2008,05,31,03,10,8.20
2008,05,31,03,11,8.20
2008,05,31,03,12,8.20
2008,05,31,03,13,8.10
2008,05,31,03,14,8.10
2008,05,31,03,15,8.10
2008,05,31,03,16,8.10
2008,05,31,03,17,8.00
2008,05,31,03,18,8.00
2008,05,31,03,19,7.90
2008,05,31,03,20,7.90
2008,05,31,03,21,7.90
2008,05,31,03,22,7.90
2008,05,31,03,23,7.90
2008,05,31,03,24,7.90
2008,05,31,03,25,7.90
2008,05,31,03,26,7.90
2008,05,31,03,27,7.90
2008,05,31,03,28,7.90
2008,05,31,03,29,7.90
2008,05,31,03,30,7.90
2008,05,31,03,31,7.90
2008,05,31,03,32,7.90
2008,05,31,03,33,7.90
2008,05,31,03,34,7.90
2008,05,31,03,35,7.90
2008,05,31,03,36,7.90
2008,05,31,03,37,7.90
2008,05,31,03,38,7.90
2008,05,31,03,39,7.90
2008,05,31,03,40,7.90
2008,05,31,03,41,7.90
2008,05,31,03,42,7.90
2008,05,31,03,43,7.90
2008,05,31,03,44,7.80
2008,05,31,03,45,7.80
2008,05,31,03,46,7.80
2008,05,31,03,47,7.80
2008,05,31,03,48,7.80
2008,05,31,03,49,7.80
2008,05,31,03,50,7.80
2008,05,31,03,51,7.80
2008,05,31,03,52,7.80
2008,05,31,03,53,7.80
2008,05,31,03,54,7.80
2008,05,31,03,55,7.80
2008,05,31,03,56,7.80
2008,05,31,03,57,7.80
2008,05,31,03,58,7.70
2008,05,31,03,59,7.70
2008,05,31,04,00,7.70
2008,05,31,04,01,7.70
2008,05,31,04,02,7.70
2008,05,31,04,03,7.70
2008,05,31,04,04,7.70
2008,05,31,04,05,7.70
2008,05,31,04,06,7.70
2008,05,31,04,07,7.70
2008,05,31,04,08,7.70
2008,05,31,04,09,7.70
2008,05,31,04,10,7.70
2008,05,31,04,11,7.70
2008,05,31,04,12,7.70
2008,05,31,04,13,7.70
2008,05,31,04,14,7.70
2008,05,31,04,15,7.80
2008,05,31,04,16,7.80
2008,05,31,04,17,7.80
2008,05,31,04,18,7.80
2008,05,31,04,19,7.80
2008,05,31,04,20,7.80
2008,05,31,04,21,7.80
2008,05,31,04,22,7.80
2008,05,31,04,23,7.80
2008,05,31,04,24,7.80
2008,05,31,04,25,7.80
2008,05,31,04,26,7.80
2008,05,31,04,27,7.80
2008,05,31,04,28,7.80
2008,05,31,04,29,7.80
2008,05,31,04,30,7.80
2008,05,31,04,31,7.80
2008,05,31,04,32,7.80
2008,05,31,04,33,7.80
2008,05,31,04,34,7.80
2008,05,31,04,35,7.80
2008,05,31,04,36,7.80
2008,05,31,04,37,7.80
2008,05,31,04,38,7.70
2008,05,31,04,39,7.70
2008,05,31,04,40,7.70
2008,05,31,04,41,7.70
2008,05,31,04,42,7.70
2008,05,31,04,43,7.70
2008,05,31,04,44,7.70
2008,05,31,04,45,7.70
2008,05,31,04,46,7.70
2008,05,31,04,47,7.70
2008,05,31,04,48,7.70
2008,05,31,04,49,7.70
2008,05,31,04,50,7.60
2008,05,31,04,51,7.60
2008,05,31,04,52,7.60
2008,05,31,04,53,7.60
2008,05,31,04,54,7.60
2008,05,31,04,55,7.60
2008,05,31,04,56,7.50
2008,05,31,04,57,7.50
2008,05,31,04,58,7.50
2008,05,31,04,59,7.50
2008,05,31,05,00,7.50
2008,05,31,05,01,7.40
2008,05,31,05,02,7.40
2008,05,31,05,03,7.40
2008,05,31,05,04,7.40
2008,05,31,05,05,7.40
2008,05,31,05,06,7.40
2008,05,31,05,07,7.40
2008,05,31,05,08,7.40
2008,05,31,05,09,7.40
2008,05,31,05,10,7.40
2008,05,31,05,11,7.40
2008,05,31,05,12,7.40
2008,05,31,05,13,7.30
2008,05,31,05,14,7.30
2008,05,31,05,15,7.30
2008,05,31,05,16,7.30
2008,05,31,05,17,7.30
2008,05,31,05,18,7.30
2008,05,31,05,19,7.30
2008,05,31,05,20,7.30
2008,05,31,05,21,7.30
2008,05,31,05,22,7.30
2008,05,31,05,23,7.30
2008,05,31,05,24,7.30
2008,05,31,05,25,7.20
2008,05,31,05,26,7.20
2008,05,31,05,27,7.20
2008,05,31,05,28,7.20
2008,05,31,05,29,7.20
2008,05,31,05,30,7.20
2008,05,31,05,31,7.20
2008,05,31,05,32,7.20
2008,05,31,05,33,7.20
2008,05,31,05,34,7.30
2008,05,31,05,35,7.30
2008,05,31,05,36,7.30
2008,05,31,05,37,7.30
2008,05,31,05,38,7.40
2008,05,31,05,39,7.40
2008,05,31,05,40,7.40
2008,05,31,05,41,7.40
2008,05,31,05,42,7.40
2008,05,31,05,43,7.40
2008,05,31,05,44,7.40
2008,05,31,05,45,7.40
2008,05,31,05,46,7.40
2008,05,31,05,47,7.40
2008,05,31,05,48,7.40
2008,05,31,05,49,7.40
2008,05,31,05,50,7.40
2008,05,31,05,51,7.40
2008,05,31,05,52,7.40
2008,05,31,05,53,7.40
2008,05,31,05,54,7.40
2008,05,31,05,55,7.40
2008,05,31,05,56,7.40
2008,05,31,05,57,7.50
2008,05,31,05,58,7.50
2008,05,31,05,59,7.60
2008,05,31,06,00,7.60
2008,05,31,06,01,7.60
2008,05,31,06,02,7.70
2008,05,31,06,03,7.70
2008,05,31,06,04,7.70
2008,05,31,06,05,7.80
2008,05,31,06,06,7.80
2008,05,31,06,07,7.80
2008,05,31,06,08,7.90
2008,05,31,06,09,7.90
2008,05,31,06,10,7.90
2008,05,31,06,11,8.00
2008,05,31,06,12,8.00
2008,05,31,06,13,8.10
2008,05,31,06,14,8.10
2008,05,31,06,15,8.10
2008,05,31,06,16,8.20
2008,05,31,06,17,8.20
2008,05,31,06,18,8.20
2008,05,31,06,19,8.30
2008,05,31,06,20,8.30
2008,05,31,06,21,8.40
2008,05,31,06,22,8.40
2008,05,31,06,23,8.50
2008,05,31,06,24,8.60
2008,05,31,06,25,8.60
2008,05,31,06,26,8.60
2008,05,31,06,27,8.70
2008,05,31,06,28,8.70
2008,05,31,06,29,8.80
2008,05,31,06,30,8.80
2008,05,31,06,31,8.80
2008,05,31,06,32,8.90
2008,05,31,06,33,8.90
2008,05,31,06,34,8.90
2008,05,31,06,35,8.90
2008,05,31,06,36,9.00
2008,05,31,06,37,9.00
2008,05,31,06,38,9.10
2008,05,31,06,39,9.10
2008,05,31,06,40,9.10
2008,05,31,06,41,9.20
2008,05,31,06,42,9.20
2008,05,31,06,43,9.20
2008,05,31,06,44,9.20
2008,05,31,06,45,9.30
2008,05,31,06,46,9.40
2008,05,31,06,47,9.40
2008,05,31,06,48,9.50
2008,05,31,06,49,9.60
2008,05,31,06,50,9.70
2008,05,31,06,51,9.70
2008,05,31,06,52,9.80
2008,05,31,06,53,9.90
2008,05,31,06,54,10.00
2008,05,31,06,55,10.10
2008,05,31,06,56,10.10
2008,05,31,06,57,10.20
2008,05,31,06,58,10.20
2008,05,31,06,59,10.20
2008,05,31,07,00,10.30
2008,05,31,07,01,10.30
2008,05,31,07,02,10.30
2008,05,31,07,03,10.30
2008,05,31,07,04,10.30
2008,05,31,07,05,10.40
2008,05,31,07,06,10.40
2008,05,31,07,07,10.50
2008,05,31,07,08,10.50
2008,05,31,07,09,10.50
2008,05,31,07,10,10.50
2008,05,31,07,11,10.60
2008,05,31,07,12,10.60
2008,05,31,07,13,10.60
2008,05,31,07,14,10.70
2008,05,31,07,15,10.70
2008,05,31,07,16,10.80
2008,05,31,07,17,10.80
2008,05,31,07,18,10.90
2008,05,31,07,19,11.00
2008,05,31,07,20,11.00
2008,05,31,07,21,11.10
2008,05,31,07,22,11.10
2008,05,31,07,23,11.10
2008,05,31,07,24,11.10
2008,05,31,07,25,11.20
2008,05,31,07,26,11.20
2008,05,31,07,27,11.30
2008,05,31,07,28,11.30
2008,05,31,07,29,11.30
2008,05,31,07,30,11.30
2008,05,31,07,31,11.40
2008,05,31,07,32,11.40
2008,05,31,07,33,11.40
2008,05,31,07,34,11.50
2008,05,31,07,35,11.50
2008,05,31,07,36,11.50
2008,05,31,07,37,11.50
2008,05,31,07,38,11.60
2008,05,31,07,39,11.60
2008,05,31,07,40,11.70
2008,05,31,07,41,11.70
2008,05,31,07,42,11.80
2008,05,31,07,43,11.80
2008,05,31,07,44,11.80
2008,05,31,07,45,11.90
2008,05,31,07,46,11.90
2008,05,31,07,47,11.90
2008,05,31,07,48,12.00
2008,05,31,07,49,12.00
2008,05,31,07,50,12.10
2008,05,31,07,51,12.10
2008,05,31,07,52,12.10
2008,05,31,07,53,12.20
2008,05,31,07,54,12.30
2008,05,31,07,55,12.30
2008,05,31,07,56,12.40
2008,05,31,07,57,12.50
2008,05,31,07,58,12.60
2008,05,31,07,59,12.70
2008,05,31,08,00,12.80
2008,05,31,08,01,12.90
2008,05,31,08,02,12.90
2008,05,31,08,03,13.00
2008,05,31,08,04,13.00
2008,05,31,08,05,13.10
2008,05,31,08,06,13.10
2008,05,31,08,07,13.10
2008,05,31,08,08,13.10
2008,05,31,08,09,13.10
2008,05,31,08,10,13.00
2008,05,31,08,11,13.00
2008,05,31,08,12,13.10
2008,05,31,08,13,13.10
2008,05,31,08,14,13.10
2008,05,31,08,15,13.20
2008,05,31,08,16,13.20
2008,05,31,08,17,13.30
2008,05,31,08,18,13.30
2008,05,31,08,19,13.30
2008,05,31,08,20,13.30
2008,05,31,08,21,13.40
2008,05,31,08,22,13.50
2008,05,31,08,23,13.50
2008,05,31,08,24,13.60
2008,05,31,08,25,13.60
2008,05,31,08,26,13.60
2008,05,31,08,27,13.70
2008,05,31,08,28,13.70
2008,05,31,08,29,13.70
2008,05,31,08,30,13.60
2008,05,31,08,31,13.60
2008,05,31,08,32,13.60
2008,05,31,08,33,13.60
2008,05,31,08,34,13.60
2008,05,31,08,35,13.60
2008,05,31,08,36,13.60
2008,05,31,08,37,13.50
2008,05,31,08,38,13.50
2008,05,31,08,39,13.40
2008,05,31,08,40,13.40
2008,05,31,08,41,13.40
2008,05,31,08,42,13.50
2008,05,31,08,43,13.50
2008,05,31,08,44,13.60
2008,05,31,08,45,13.70
2008,05,31,08,46,13.70
2008,05,31,08,47,13.80
2008,05,31,08,48,13.90
2008,05,31,08,49,13.90
2008,05,31,08,50,14.00
2008,05,31,08,51,14.10
2008,05,31,08,52,14.10
2008,05,31,08,53,14.00
2008,05,31,08,54,14.00
2008,05,31,08,55,14.00
2008,05,31,08,56,14.00
2008,05,31,08,57,14.00
2008,05,31,08,58,14.10
2008,05,31,08,59,14.10
2008,05,31,09,00,14.10
2008,05,31,09,01,14.10
2008,05,31,09,02,14.10
2008,05,31,09,03,14.10
2008,05,31,09,04,14.10
2008,05,31,09,05,14.00
2008,05,31,09,06,14.00
2008,05,31,09,07,14.00
2008,05,31,09,08,14.10
2008,05,31,09,09,14.10
2008,05,31,09,10,14.10
2008,05,31,09,11,14.20
2008,05,31,09,12,14.20
2008,05,31,09,13,14.20
2008,05,31,09,14,14.20
2008,05,31,09,15,14.20
2008,05,31,09,16,14.20
2008,05,31,09,17,14.20
2008,05,31,09,18,14.30
2008,05,31,09,19,14.40
2008,05,31,09,20,14.50
2008,05,31,09,21,14.70
2008,05,31,09,22,14.80
2008,05,31,09,23,15.00
2008,05,31,09,24,15.00
2008,05,31,09,25,15.00
2008,05,31,09,26,15.10
2008,05,31,09,27,15.10
2008,05,31,09,28,15.10
2008,05,31,09,29,15.20
2008,05,31,09,30,15.30
2008,05,31,09,31,15.30
2008,05,31,09,32,15.30
2008,05,31,09,33,15.30
2008,05,31,09,34,15.30
2008,05,31,09,35,15.30
2008,05,31,09,36,15.30
2008,05,31,09,37,15.30
2008,05,31,09,38,15.30
2008,05,31,09,39,15.20
2008,05,31,09,40,15.30
2008,05,31,09,41,15.30
2008,05,31,09,42,15.40
2008,05,31,09,43,15.40
2008,05,31,09,44,15.40
2008,05,31,09,45,15.40
2008,05,31,09,46,15.40
2008,05,31,09,47,15.40
2008,05,31,09,48,15.40
2008,05,31,09,49,15.40
2008,05,31,09,50,15.40
2008,05,31,09,51,15.40
2008,05,31,09,52,15.40
2008,05,31,09,53,15.40
2008,05,31,09,54,15.40
2008,05,31,09,55,15.40
2008,05,31,09,56,15.40
2008,05,31,09,57,15.30
2008,05,31,09,58,15.30
2008,05,31,09,59,15.20
2008,05,31,10,00,15.20
2008,05,31,10,01,15.20
2008,05,31,10,02,15.10
2008,05,31,10,03,15.10
2008,05,31,10,04,15.00
2008,05,31,10,05,15.00
2008,05,31,10,06,15.00
2008,05,31,10,07,15.00
2008,05,31,10,08,15.00
2008,05,31,10,09,15.20
2008,05,31,10,10,15.20
2008,05,31,10,11,15.20
2008,05,31,10,12,15.20
2008,05,31,10,13,15.30
2008,05,31,10,14,15.40
2008,05,31,10,15,15.50
2008,05,31,10,16,15.60
2008,05,31,10,17,15.70
2008,05,31,10,18,15.70
2008,05,31,10,19,15.70
2008,05,31,10,20,15.70
2008,05,31,10,21,15.70
2008,05,31,10,22,15.70
2008,05,31,10,23,15.70
2008,05,31,10,24,15.70
2008,05,31,10,25,15.60
2008,05,31,10,26,15.60
2008,05,31,10,27,15.50
2008,05,31,10,28,15.50
2008,05,31,10,29,15.40
2008,05,31,10,30,15.40
2008,05,31,10,31,15.40
2008,05,31,10,32,15.40
2008,05,31,10,33,15.40
2008,05,31,10,34,15.40
2008,05,31,10,35,15.40
2008,05,31,10,36,15.40
2008,05,31,10,37,15.40
2008,05,31,10,38,15.30
2008,05,31,10,39,15.30
2008,05,31,10,40,15.30
2008,05,31,10,41,15.40
2008,05,31,10,42,15.40
2008,05,31,10,43,15.50
2008,05,31,10,44,15.60
2008,05,31,10,45,15.60
2008,05,31,10,46,15.50
2008,05,31,10,47,15.50
2008,05,31,10,48,15.40
2008,05,31,10,49,15.40
2008,05,31,10,50,15.40
2008,05,31,10,51,15.50
2008,05,31,10,52,15.50
2008,05,31,10,53,15.50
2008,05,31,10,54,15.60
2008,05,31,10,55,15.60
2008,05,31,10,56,15.60
2008,05,31,10,57,15.70
2008,05,31,10,58,15.80
2008,05,31,10,59,15.90
2008,05,31,11,00,16.00
2008,05,31,11,01,16.00
2008,05,31,11,02,15.90
2008,05,31,11,03,15.90
2008,05,31,11,04,15.80
2008,05,31,11,05,15.70
2008,05,31,11,06,15.70
2008,05,31,11,07,15.70
2008,05,31,11,08,15.80
2008,05,31,11,09,15.80
2008,05,31,11,10,15.80
2008,05,31,11,11,15.90
2008,05,31,11,12,15.90
2008,05,31,11,13,15.80
2008,05,31,11,14,15.80
2008,05,31,11,15,15.70
2008,05,31,11,16,15.70
2008,05,31,11,17,15.70
2008,05,31,11,18,15.70
2008,05,31,11,19,15.70
2008,05,31,11,20,15.70
2008,05,31,11,21,15.80
2008,05,31,11,22,15.80
2008,05,31,11,23,15.80
2008,05,31,11,24,15.70
2008,05,31,11,25,15.60
2008,05,31,11,26,15.60
2008,05,31,11,27,15.70
2008,05,31,11,28,15.70
2008,05,31,11,29,15.60
2008,05,31,11,30,15.60
2008,05,31,11,31,15.60
2008,05,31,11,32,15.70
2008,05,31,11,33,15.80
2008,05,31,11,34,15.90
2008,05,31,11,35,15.90
2008,05,31,11,36,16.00
2008,05,31,11,37,16.00
2008,05,31,11,38,16.00
2008,05,31,11,39,16.10
2008,05,31,11,40,16.10
2008,05,31,11,41,16.10
2008,05,31,11,42,16.00
2008,05,31,11,43,15.90
2008,05,31,11,44,15.90
2008,05,31,11,45,15.80
2008,05,31,11,46,15.80
2008,05,31,11,47,15.70
2008,05,31,11,48,15.70
2008,05,31,11,49,15.70
2008,05,31,11,50,15.80
2008,05,31,11,51,15.90
2008,05,31,11,52,15.90
2008,05,31,11,53,15.90
2008,05,31,11,54,16.00
2008,05,31,11,55,16.10
2008,05,31,11,56,16.10
2008,05,31,11,57,16.00
2008,05,31,11,58,15.90
2008,05,31,11,59,15.90
2008,05,31,12,00,15.90
2008,05,31,12,01,16.00
2008,05,31,12,02,16.10
2008,05,31,12,03,16.00
2008,05,31,12,04,16.00
2008,05,31,12,05,16.00
2008,05,31,12,06,15.90
2008,05,31,12,07,15.80
2008,05,31,12,08,15.90
2008,05,31,12,09,15.90
2008,05,31,12,10,16.10
2008,05,31,12,11,16.20
2008,05,31,12,12,16.10
2008,05,31,12,13,16.10
2008,05,31,12,14,16.10
2008,05,31,12,15,16.20
2008,05,31,12,16,16.30
2008,05,31,12,17,16.30
2008,05,31,12,18,16.30
2008,05,31,12,19,16.30
2008,05,31,12,20,16.40
2008,05,31,12,21,16.40
2008,05,31,12,22,16.50
2008,05,31,12,23,16.50
2008,05,31,12,24,16.60
2008,05,31,12,25,16.60
2008,05,31,12,26,16.70
2008,05,31,12,27,16.80
2008,05,31,12,28,16.90
2008,05,31,12,29,17.00
2008,05,31,12,30,17.00
2008,05,31,12,31,17.00
2008,05,31,12,32,17.00
2008,05,31,12,33,16.90
2008,05,31,12,34,16.90
2008,05,31,12,35,16.90
2008,05,31,12,36,16.80
2008,05,31,12,37,16.80
2008,05,31,12,38,16.70
2008,05,31,12,39,16.60
2008,05,31,12,40,16.60
2008,05,31,12,41,16.70
2008,05,31,12,42,16.70
2008,05,31,12,43,16.80
2008,05,31,12,44,16.80
2008,05,31,12,45,16.80
2008,05,31,12,46,16.80
2008,05,31,12,47,16.80
2008,05,31,12,48,16.90
2008,05,31,12,49,17.00
2008,05,31,12,50,17.10
2008,05,31,12,51,17.10
2008,05,31,12,52,17.20
2008,05,31,12,53,17.20
2008,05,31,12,54,17.20
2008,05,31,12,55,17.10
2008,05,31,12,56,16.90
2008,05,31,12,57,16.80
2008,05,31,12,58,16.80
2008,05,31,12,59,16.90
2008,05,31,13,00,16.90
2008,05,31,13,01,16.90
2008,05,31,13,02,17.00
2008,05,31,13,03,17.00
2008,05,31,13,04,17.00
2008,05,31,13,05,17.00
2008,05,31,13,06,16.90
2008,05,31,13,07,16.90
2008,05,31,13,08,16.90
2008,05,31,13,09,17.00
2008,05,31,13,10,17.00
2008,05,31,13,11,17.00
2008,05,31,13,12,17.00
2008,05,31,13,13,16.90
2008,05,31,13,14,16.80
2008,05,31,13,15,16.90
2008,05,31,13,16,16.90
2008,05,31,13,17,16.90
2008,05,31,13,18,16.90
2008,05,31,13,19,17.00
2008,05,31,13,20,17.10
2008,05,31,13,21,17.30
2008,05,31,13,22,17.40
2008,05,31,13,23,17.40
2008,05,31,13,24,17.40
2008,05,31,13,25,17.30
2008,05,31,13,26,17.30
2008,05,31,13,27,17.30
2008,05,31,13,28,17.30
2008,05,31,13,29,17.30
2008,05,31,13,30,17.40
2008,05,31,13,31,17.50
2008,05,31,13,32,17.40
2008,05,31,13,33,17.50
2008,05,31,13,34,17.60
2008,05,31,13,35,17.70
2008,05,31,13,36,17.80
2008,05,31,13,37,17.90
2008,05,31,13,38,18.00
2008,05,31,13,39,18.00
2008,05,31,13,40,18.10
2008,05,31,13,41,18.10
2008,05,31,13,42,18.00
2008,05,31,13,43,17.90
2008,05,31,13,44,17.90
2008,05,31,13,45,17.90
2008,05,31,13,46,17.80
2008,05,31,13,47,17.80
2008,05,31,13,48,17.80
2008,05,31,13,49,17.70
2008,05,31,13,50,17.60
2008,05,31,13,51,17.60
2008,05,31,13,52,17.70
2008,05,31,13,53,17.80
2008,05,31,13,54,17.80
2008,05,31,13,55,17.80
2008,05,31,13,56,17.80
2008,05,31,13,57,17.80
2008,05,31,13,58,17.80
2008,05,31,13,59,17.80
2008,05,31,14,00,17.80
2008,05,31,14,01,17.70
2008,05,31,14,02,17.70
2008,05,31,14,03,17.60
2008,05,31,14,04,17.50
2008,05,31,14,05,17.50
2008,05,31,14,06,17.50
2008,05,31,14,07,17.50
2008,05,31,14,08,17.60
2008,05,31,14,09,17.60
2008,05,31,14,10,17.50
2008,05,31,14,11,17.50
2008,05,31,14,12,17.50
2008,05,31,14,13,17.60
2008,05,31,14,14,17.70
2008,05,31,14,15,17.80
2008,05,31,14,16,17.80
2008,05,31,14,17,17.80
2008,05,31,14,18,17.90
2008,05,31,14,19,17.90
2008,05,31,14,20,18.00
2008,05,31,14,21,18.10
2008,05,31,14,22,18.20
2008,05,31,14,23,18.20
2008,05,31,14,24,18.30
2008,05,31,14,25,18.30
2008,05,31,14,26,18.40
2008,05,31,14,27,18.50
2008,05,31,14,28,18.60
2008,05,31,14,29,18.70
2008,05,31,14,30,18.70
2008,05,31,14,31,18.80
2008,05,31,14,32,18.70
2008,05,31,14,33,18.70
2008,05,31,14,34,18.60
2008,05,31,14,35,18.40
2008,05,31,14,36,18.20
2008,05,31,14,37,18.00
2008,05,31,14,38,18.00
2008,05,31,14,39,17.90
2008,05,31,14,40,17.80
2008,05,31,14,41,17.80
2008,05,31,14,42,17.80
2008,05,31,14,43,17.70
2008,05,31,14,44,17.80
2008,05,31,14,45,17.80
2008,05,31,14,46,17.90
2008,05,31,14,47,17.90
2008,05,31,14,48,18.00
2008,05,31,14,49,18.00
2008,05,31,14,50,18.10
2008,05,31,14,51,18.10
2008,05,31,14,52,18.00
2008,05,31,14,53,17.90
2008,05,31,14,54,17.70
2008,05,31,14,55,17.60
2008,05,31,14,56,17.50
2008,05,31,14,57,17.40
2008,05,31,14,58,17.30
2008,05,31,14,59,17.30
2008,05,31,15,00,17.40
2008,05,31,15,01,17.40
2008,05,31,15,02,17.50
2008,05,31,15,03,17.60
2008,05,31,15,04,17.70
2008,05,31,15,05,17.80
2008,05,31,15,06,17.80
2008,05,31,15,07,17.70
2008,05,31,15,08,17.60
2008,05,31,15,09,17.60
2008,05,31,15,10,17.50
2008,05,31,15,11,17.50
2008,05,31,15,12,17.40
2008,05,31,15,13,17.40
2008,05,31,15,14,17.40
2008,05,31,15,15,17.30
2008,05,31,15,16,17.30
2008,05,31,15,17,17.20
2008,05,31,15,18,17.20
2008,05,31,15,19,17.10
2008,05,31,15,20,17.10
2008,05,31,15,21,17.10
2008,05,31,15,22,17.10
2008,05,31,15,23,17.10
2008,05,31,15,24,17.10
2008,05,31,15,25,17.20
2008,05,31,15,26,17.20
2008,05,31,15,27,17.30
2008,05,31,15,28,17.40
2008,05,31,15,29,17.40
2008,05,31,15,30,17.40
2008,05,31,15,31,17.40
2008,05,31,15,32,17.40
2008,05,31,15,33,17.40
2008,05,31,15,34,17.50
2008,05,31,15,35,17.60
2008,05,31,15,36,17.60
2008,05,31,15,37,17.60
2008,05,31,15,38,17.60
2008,05,31,15,39,17.60
2008,05,31,15,40,17.60
2008,05,31,15,41,17.70
2008,05,31,15,42,17.80
2008,05,31,15,43,17.90
2008,05,31,15,44,18.00
2008,05,31,15,45,18.00
2008,05,31,15,46,18.10
2008,05,31,15,47,18.10
2008,05,31,15,48,18.10
2008,05,31,15,49,18.00
2008,05,31,15,50,17.90
2008,05,31,15,51,17.90
2008,05,31,15,52,17.90
2008,05,31,15,53,17.90
2008,05,31,15,54,17.80
2008,05,31,15,55,17.70
2008,05,31,15,56,17.60
2008,05,31,15,57,17.60
2008,05,31,15,58,17.60
2008,05,31,15,59,17.50
2008,05,31,16,00,17.50
2008,05,31,16,01,17.50
2008,05,31,16,02,17.40
2008,05,31,16,03,17.40
2008,05,31,16,04,17.30
2008,05,31,16,05,17.30
2008,05,31,16,06,17.30
2008,05,31,16,07,17.30
2008,05,31,16,08,17.40
2008,05,31,16,09,17.50
2008,05,31,16,10,17.50
2008,05,31,16,11,17.50
2008,05,31,16,12,17.40
2008,05,31,16,13,17.30
2008,05,31,16,14,17.20
2008,05,31,16,15,17.10
2008,05,31,16,16,17.10
2008,05,31,16,17,17.10
2008,05,31,16,18,17.20
2008,05,31,16,19,17.30
2008,05,31,16,20,17.50
2008,05,31,16,21,17.60
2008,05,31,16,22,17.70
2008,05,31,16,23,17.70
2008,05,31,16,24,17.80
2008,05,31,16,25,17.80
2008,05,31,16,26,17.90
2008,05,31,16,27,17.90
2008,05,31,16,28,17.80
2008,05,31,16,29,17.80
2008,05,31,16,30,17.80
2008,05,31,16,31,17.80
2008,05,31,16,32,17.80
2008,05,31,16,33,17.90
2008,05,31,16,34,17.90
2008,05,31,16,35,17.90
2008,05,31,16,36,17.90
2008,05,31,16,37,18.10
2008,05,31,16,38,18.10
2008,05,31,16,39,18.20
2008,05,31,16,40,18.10
2008,05,31,16,41,18.10
2008,05,31,16,42,18.10
2008,05,31,16,43,18.10
2008,05,31,16,44,18.20
2008,05,31,16,45,18.30
2008,05,31,16,46,18.30
2008,05,31,16,47,18.30
2008,05,31,16,48,18.20
2008,05,31,16,49,18.10
2008,05,31,16,50,18.10
2008,05,31,16,51,18.10
2008,05,31,16,52,18.20
2008,05,31,16,53,18.20
2008,05,31,16,54,18.30
2008,05,31,16,55,18.30
2008,05,31,16,56,18.30
2008,05,31,16,57,18.20
2008,05,31,16,58,18.20
2008,05,31,16,59,18.20
2008,05,31,17,00,18.20
2008,05,31,17,01,18.10
2008,05,31,17,02,18.00
2008,05,31,17,03,17.90
2008,05,31,17,04,17.80
2008,05,31,17,05,17.70
2008,05,31,17,06,17.70
2008,05,31,17,07,17.70
2008,05,31,17,08,17.70
2008,05,31,17,09,17.70
2008,05,31,17,10,17.70
2008,05,31,17,11,17.70
2008,05,31,17,12,17.80
2008,05,31,17,13,17.80
2008,05,31,17,14,17.90
2008,05,31,17,15,17.80
2008,05,31,17,16,17.80
2008,05,31,17,17,17.80
2008,05,31,17,18,17.70
2008,05,31,17,19,17.70
2008,05,31,17,20,17.70
2008,05,31,17,21,17.70
2008,05,31,17,22,17.70
2008,05,31,17,23,17.80
2008,05,31,17,24,17.80
2008,05,31,17,25,17.80
2008,05,31,17,26,17.80
2008,05,31,17,27,17.80
2008,05,31,17,28,17.80
2008,05,31,17,29,17.80
2008,05,31,17,30,17.80
2008,05,31,17,31,17.80
2008,05,31,17,32,17.80
2008,05,31,17,33,17.90
2008,05,31,17,34,17.90
2008,05,31,17,35,17.90
2008,05,31,17,36,18.00
2008,05,31,17,37,18.10